Weather in Kiinsk

Russia / Khabarovsk Krai     47°58′59″N   134°49′41″E
temp.,
°C
wind,
m/s
gust,
m/s
humid.,
%
clouds,
%
prec.,
mm/h
press.,
hPa
HPBL,
m
12 may, wed
wed1201:00+6ese22725 0.0 101810
04:00+4ese337747 0.0 101840
07:00+6ese367258 0.0 1017153
10:00+13ese4653100 0.0 1015795
13:00+17s5745100 0.0 10121853
16:00+16ssw61054100 0.0 10101721
19:00+11ssw41090100 3.8 1010704
22:00+10s71578100 7.8 10101066
13 may, thu
thu1301:00+9s61482100 0.0 1009746
04:00+8se379183 0.6 1008241
07:00+9s4118310 0.0 1007575
10:00+14ssw81163100 0.1 10071234
13:00+15sw61163100 1.2 10061432
16:00+16w61051100 1.3 10061598
19:00+14w356184 0.0 1006121
22:00+10w228252 1.2 100726
14 may, fri
fri1401:00+9w358737 0.0 100883
04:00+8w349113 0.0 100953
07:00+9wsw278512 0.0 1010225
10:00+15w46564 0.0 1011817
13:00+20wnw45437 0.0 10101398
16:00+22nw343696 0.0 10091743
19:00+19e2247100 0.0 100819
22:00+15ese4962100 0.0 1008168
15 may, sat
sat1501:00+14se4758100 0.0 1006115
04:00+16s81746100 0.1 1005782
07:00+14sse71571100 0.1 1003911
10:00+12s71393100 6.4 1002900
13:00+13sw81493100 4.9 1001850
16:00+17w71257100 5.6 10012095
19:00+15wsw713530 0.1 1002618
22:00+13sw7165461 0.1 1002430
16 may, sun
sun1601:00+12sw51061100 0.0 1003354
04:00+9w613705 0.0 1003475
07:00+10w611745 0.0 1004831
10:00+13w7106290 0.1 10041482
13:00+15wnw8125591 0.6 10031943
16:00+16wnw8134982 1.1 10022243
19:00+15wnw6105410 0.0 10031261
22:00+10w37734 0.0 1004109